Location: Gokavaram
(16.9752°N, 81.0696°E)
Time: 04:28:22
(UTC+00:00)

Cosmos 1680 Rocket - Pass Details

Date: 15 May 2026
Orbit: 756 x 776 km, 74.1° (Epoch: 6 June)

Event Time Altitude Azimuth Distance (km) Brightness Sun altitude
Exits shadow 22:43:16 32° 263° (W) 1,281 4.1 -18.6°
Maximum altitude 22:44:11 35° 286° (WNW) 1,222 4.2 -18.4°
Drops below altitude 10° 22:48:53 10° 351° (N) 2,284 6.2 -17.4°
Sets 22:51:27 0° 0° (N) 3,208 7.1 -16.8°
